Location: Haulchin
(50.3172°N, 3.4360°E)
Time: 12:14:05
(UTC+00:00)

Cosmos 2208 Rocket - Pass Details

Date: 23 May 2024
Orbit: 752 x 803 km, 74.0° (Epoch: 14 June)

Event Time Altitude Azimuth Distance (km) Brightness Sun altitude
Rises 02:54:45 0° 335° (NNW) 3,284 7.6 -7.4°
Reaches altitude 10° 02:57:09 10° 335° (NNW) 2,343 6.8 -7.1°
Maximum altitude 03:02:29 88° 248° (WSW) 779 4.1 -6.5°
Drops below altitude 10° 03:07:43 10° 159° (SSE) 2,294 6.3 -5.9°
Sets 03:10:03 0° 159° (SSE) 3,209 7.0 -5.6°
